QPF
0.00 0.00 0.00 0.00 0.00 0.00 0.00 0.00 0.00 0.00 0.00 0.00 0.00 0.00 0.00 0.00 0.00 0.00 0.00 0.00 0.00 0.00 0.00 0.00 0.00 0.00 0.00 0.01 0.03 0.05 0.04 0.02 0.01 0.01 0.01 0.01 0.01 0.01 0.00 0.00 0.00 0.00 0.00 0.00
0.00 0.00 0.00 0.00 0.00 0.00 0.00 0.00 0.00 0.00 0.00 0.00 0.00 0.00 0.00 0.00 0.00 0.00 0.00 0.00 0.00 0.00 0.01 0.00 0.00 0.00 0.00 0.02 0.04 0.07 0.08 0.03 0.01 0.00 0.00 0.00 0.01 0.00 0.00 0.00 0.00 0.00 0.00 0.00
0.00 0.00 0.00 0.00 0.00 0.00 0.00 0.00 0.00 0.00 0.00 0.00 0.00 0.00 0.00 0.00 0.00 0.00 0.00 0.00 0.00 0.00 0.00 0.00 0.00 0.00 0.00 0.01 0.01 0.02 0.03 0.02 0.01 0.00 0.00 0.00 0.00 0.00 0.00 0.00 0.00 0.00 0.00 0.00
0.00 0.00 0.00 0.00 0.00 0.00 0.00 0.00 0.00 0.00 0.00 0.00 0.00 0.00 0.00 0.00 0.00 0.00 0.00 0.00 0.00 0.00 0.00 0.00 0.00 0.00 0.00 0.00 0.00 0.00 0.00 0.00 0.00 0.00 0.00 0.00 0.00 0.00 0.00 0.00 0.00 0.00 0.00 0.00
0.00 0.00 0.00 0.00 0.00 0.00 0.00 0.00 0.00 0.00 0.00 0.00 0.00 0.00 0.00 0.00 0.00 0.00 0.00 0.00 0.00 0.00 0.00 0.00 0.00 0.00 0.00 0.00 0.00 0.00 0.00 0.00 0.00 0.00 0.00 0.00 0.00 0.00 0.00 0.00 0.00 0.00 0.00 0.00
0.00 0.00 0.00 0.00 0.00 0.00 0.00 0.00 0.00 0.00 0.00 0.00 0.00 0.00 0.00 0.00 0.00 0.00 0.00 0.00 0.00 0.00 0.00 0.00 0.00 0.00 0.00 0.00 0.00 0.00 0.00 0.00 0.00 0.00 0.00 0.00 0.00 0.00 0.00 0.00 0.00 0.00 0.00 0.00
0.00 0.00 0.00 0.00 0.00 0.00 0.00 0.00 0.00 0.00 0.00 0.00 0.00 0.00 0.00 0.00 0.00 0.00 0.00 0.00 0.00 0.00 0.00 0.00 0.00 0.00 0.00 0.00 0.00 0.00 0.00 0.00 0.00 0.00 0.00 0.00 0.00 0.00 0.00 0.00 0.00 0.00 0.00 0.00
0.00 0.00 0.00 0.00 0.00 0.00 0.00 0.00 0.00 0.00 0.00 0.00 0.00 0.00 0.00 0.00 0.00 0.00 0.00 0.00 0.00 0.00 0.00 0.00 0.00 0.00 0.00 0.00 0.00 0.00 0.00 0.00 0.00 0.00 0.00 0.00 0.00 0.00 0.00 0.00 0.00 0.00 0.00 0.00
0.00 0.00 0.00 0.00 0.00 0.00 0.00 0.00 0.00 0.00 0.00 0.00 0.00 0.00 0.00 0.00 0.00 0.00 0.00 0.00 0.00 0.00 0.00 0.00 0.00 0.00 0.00 0.00 0.00 0.00 0.00 0.00 0.00 0.00 0.00 0.00 0.00 0.00 0.00 0.00 0.00 0.00 0.00 0.00
0.00 0.00 0.00 0.00 0.00 0.00 0.00 0.00 0.00 0.00 0.00 0.00 0.00 0.00 0.00 0.00 0.00 0.00 0.00 0.00 0.00 0.00 0.00 0.00 0.00 0.00 0.00 0.00 0.00 0.00 0.00 0.00 0.00 0.00 0.00 0.00 0.00 0.00 0.00 0.00 0.00 0.00 0.00 0.00
0.00 0.00 0.00 0.00 0.00 0.00 0.00 0.00 0.00 0.00 0.00 0.00 0.00 0.00 0.00 0.00 0.00 0.00 0.00 0.00 0.00 0.00 0.00 0.00 0.00 0.00 0.00 0.00 0.00 0.00 0.00 0.00 0.00 0.00 0.00 0.00 0.00 0.00 0.00 0.00 0.00 0.00 0.00 0.00
0.00 0.00 0.00 0.00 0.00 0.00 0.00 0.00 0.00 0.00 0.00 0.00 0.00 0.00 0.00 0.00 0.00 0.00 0.00 0.00 0.00 0.00 0.00 0.00 0.00 0.00 0.00 0.00 0.00 0.00 0.00 0.00 0.00 0.00 0.00 0.00 0.00 0.00 0.00 0.00 0.00 0.00 0.00 0.00
0.00 0.00 0.00 0.00 0.00 0.00 0.00 0.00 0.00 0.00 0.00 0.00 0.00 0.00 0.00 0.00 0.00 0.00 0.00 0.00 0.00 0.00 0.00 0.00 0.00 0.00 0.00 0.00 0.00 0.00 0.00 0.00 0.00 0.00 0.00 0.00 0.00 0.00 0.00 0.00 0.00 0.00 0.00 0.00
0.00 0.00 0.00 0.00 0.00 0.00 0.00 0.00 0.00 0.00 0.00 0.00 0.00 0.00 0.00 0.00 0.00 0.00 0.00 0.00 0.00 0.00 0.00 0.00 0.00 0.00 0.00 0.00 0.00 0.00 0.00 0.00 0.00 0.00 0.00 0.00 0.00 0.00 0.00 0.00 0.00 0.00 0.00 0.00
0.00 0.00 0.00 0.00 0.00 0.00 0.00 0.00 0.00 0.00 0.00 0.00 0.00 0.00 0.00 0.00 0.00 0.00 0.00 0.00 0.00 0.00 0.00 0.00 0.00 0.00 0.00 0.00 0.00 0.00 0.00 0.00 0.00 0.00 0.00 0.00 0.00 0.00 0.00 0.00 0.00 0.00 0.00 0.00
0.00 0.00 0.00 0.00 0.00 0.00 0.00 0.00 0.00 0.00 0.00 0.00 0.00 0.00 0.00 0.00 0.00 0.00 0.00 0.00 0.00 0.00 0.00 0.00 0.00 0.00 0.00 0.00 0.00 0.00 0.00 0.00 0.00 0.00 0.00 0.00 0.00 0.00 0.00 0.00 0.00 0.00 0.00 0.00
0.00 0.00 0.00 0.00 0.00 0.00 0.00 0.00 0.00 0.00 0.00 0.00 0.00 0.00 0.00 0.00 0.00 0.00 0.00 0.00 0.00 0.00 0.00 0.00 0.00 0.00 0.00 0.00 0.00 0.00 0.00 0.00 0.00 0.00 0.00 0.00 0.00 0.00 0.00 0.00 0.00 0.00 0.00 0.00
0.00 0.00 0.00 0.00 0.00 0.00 0.00 0.00 0.00 0.00 0.00 0.00 0.00 0.00 0.00 0.00 0.00 0.00 0.00 0.00 0.00 0.00 0.00 0.00 0.00 0.00 0.00 0.00 0.00 0.00 0.00 0.00 0.00 0.00 0.00 0.00 0.00 0.00 0.00 0.00 0.00 0.00 0.00 0.00
0.00 0.00 0.00 0.00 0.00 0.00 0.00 0.00 0.00 0.00 0.00 0.00 0.00 0.00 0.00 0.00 0.00 0.00 0.00 0.00 0.00 0.00 0.00 0.00 0.00 0.00 0.00 0.00 0.00 0.00 0.00 0.00 0.00 0.00 0.00 0.00 0.00 0.00 0.00 0.00 0.00 0.00 0.00 0.00
0.00 0.00 0.00 0.00 0.00 0.00 0.00 0.00 0.00 0.00 0.00 0.00 0.00 0.00 0.00 0.00 0.00 0.00 0.00 0.00 0.00 0.00 0.00 0.00 0.00 0.00 0.00 0.00 0.00 0.00 0.00 0.00 0.00 0.00 0.00 0.00 0.00 0.00 0.00 0.00 0.00 0.00 0.00 0.00
0.00 0.00 0.00 0.00 0.00 0.00 0.00 0.00 0.00 0.00 0.00 0.00 0.00 0.00 0.00 0.00 0.00 0.00 0.00 0.00 0.00 0.00 0.00 0.00 0.00 0.00 0.00 0.00 0.00 0.00 0.00 0.00 0.00 0.00 0.00 0.00 0.00 0.00 0.00 0.00 0.00 0.00 0.00 0.00
0.00 0.00 0.00 0.00 0.00 0.00 0.00 0.00 0.00 0.00 0.00 0.00 0.00 0.00 0.00 0.00 0.00 0.00 0.00 0.00 0.00 0.00 0.00 0.00 0.00 0.00 0.00 0.00 0.00 0.00 0.00 0.00 0.00 0.00 0.00 0.00 0.00 0.00 0.00 0.00 0.00 0.00 0.00 0.00
0.00 0.00 0.00 0.00 0.00 0.00 0.00 0.00 0.00 0.00 0.00 0.00 0.00 0.00 0.00 0.00 0.00 0.00 0.00 0.00 0.00 0.00 0.00 0.00 0.00 0.00 0.00 0.00 0.00 0.00 0.00 0.00 0.00 0.00 0.00 0.00 0.00 0.00 0.00 0.00 0.00 0.00 0.00 0.00
0.00 0.00 0.00 0.00 0.00 0.00 0.00 0.00 0.00 0.00 0.00 0.00 0.00 0.00 0.00 0.00 0.00 0.00 0.00 0.00 0.00 0.00 0.00 0.00 0.00 0.00 0.00 0.00 0.00 0.00 0.00 0.00 0.00 0.00 0.00 0.00 0.00 0.00 0.00 0.00 0.00 0.00 0.00 0.00
0.00 0.00 0.00 0.00 0.00 0.00 0.00 0.00 0.00 0.00 0.00 0.00 0.00 0.00 0.00 0.00 0.00 0.00 0.00 0.00 0.00 0.00 0.00 0.00 0.00 0.00 0.00 0.00 0.00 0.00 0.00 0.00 0.00 0.00 0.00 0.00 0.00 0.00 0.00 0.00 0.00 0.00 0.00 0.00
0.00 0.00 0.00 0.00 0.00 0.00 0.00 0.00 0.00 0.00 0.00 0.00 0.00 0.00 0.00 0.00 0.00 0.00 0.00 0.00 0.00 0.00 0.00 0.00 0.00 0.00 0.00 0.00 0.00 0.00 0.00 0.00 0.00 0.00 0.00 0.00 0.00 0.00 0.00 0.00 0.00 0.00 0.00 0.00
0.00 0.00 0.00 0.00 0.00 0.00 0.00 0.00 0.00 0.00 0.00 0.00 0.00 0.00 0.00 0.00 0.00 0.00 0.00 0.00 0.00 0.00 0.00 0.00 0.00 0.00 0.00 0.00 0.00 0.00 0.00 0.00 0.00 0.00 0.00 0.00 0.00 0.00 0.00 0.00 0.00 0.00 0.00 0.00
MSLP
1014.46 1014.28 1014.24 1014.20 1014.35 1014.75 1015.20 1014.66 1014.51 1012.17 1011.20 1009.04 1008.58 1008.24 1007.96 1007.68 1007.74 1007.51 1007.33 1007.00 1006.63 1006.62 1006.78 1007.19 1007.88 1007.63 1007.56 1007.56 1007.64 1008.03 1008.32 1008.29 1008.85 1009.14 1009.41 1010.19 1010.65 1012.07 1012.71 1013.61 1014.52 1015.49 1016.59 1017.90
1014.41 1013.81 1013.67 1013.58 1013.29 1013.49 1013.55 1013.36 1012.72 1011.61 1010.21 1008.81 1008.34 1008.19 1008.19 1008.52 1008.48 1008.14 1007.74 1007.24 1006.84 1007.06 1007.44 1008.01 1008.45 1008.52 1008.64 1008.66 1008.82 1009.22 1009.62 1009.95 1009.91 1010.09 1010.78 1011.62 1012.09 1013.16 1013.90 1014.83 1015.76 1016.74 1017.80 1018.69
1014.59 1013.66 1013.21 1012.65 1011.31 1011.43 1011.59 1011.24 1010.80 1010.42 1008.69 1008.17 1007.98 1008.31 1009.14 1009.36 1009.18 1008.86 1008.52 1007.46 1007.56 1008.10 1008.44 1008.74 1008.96 1009.09 1009.46 1009.86 1010.29 1010.45 1010.66 1011.00 1011.48 1011.69 1012.26 1012.93 1013.46 1014.24 1015.49 1016.51 1017.26 1018.05 1018.14 1018.99
1014.42 1013.54 1012.44 1009.93 1008.94 1008.99 1009.67 1009.34 1009.44 1008.87 1008.12 1007.96 1008.20 1009.10 1009.66 1010.01 1009.83 1009.78 1009.60 1009.33 1009.42 1009.38 1009.32 1009.60 1009.88 1010.21 1010.49 1010.74 1011.37 1011.72 1012.58 1012.34 1012.85 1012.85 1013.71 1014.19 1014.67 1015.87 1016.88 1017.31 1018.26 1019.09 1019.38 1019.36
1013.92 1013.34 1011.36 1009.22 1008.48 1008.48 1008.85 1008.47 1008.11 1008.05 1007.86 1007.81 1008.34 1009.19 1009.83 1010.34 1010.40 1010.51 1010.48 1010.27 1010.18 1010.35 1010.40 1010.44 1010.59 1010.86 1010.97 1011.62 1012.24 1012.90 1013.71 1013.91 1013.86 1013.84 1014.79 1015.64 1016.78 1017.16 1017.48 1018.08 1019.10 1019.21 1019.31 1019.42
1013.61 1013.18 1011.32 1009.03 1008.16 1007.98 1008.12 1008.16 1007.47 1007.63 1007.87 1008.28 1008.78 1009.39 1009.95 1010.51 1010.95 1011.21 1011.24 1011.08 1011.09 1011.25 1011.33 1011.50 1011.81 1011.58 1011.73 1012.46 1012.94 1013.70 1014.26 1014.54 1014.79 1015.29 1015.91 1016.59 1016.76 1018.25 1018.75 1019.24 1019.56 1019.49 1020.30 1019.97
1013.26 1012.82 1010.78 1008.62 1008.04 1008.03 1008.18 1007.99 1007.12 1007.45 1008.05 1008.62 1009.23 1009.70 1010.21 1011.00 1011.57 1011.85 1011.99 1012.05 1012.10 1012.18 1012.37 1012.66 1012.72 1012.55 1012.93 1013.66 1014.27 1014.52 1014.82 1014.94 1015.93 1016.25 1016.91 1017.86 1018.59 1018.73 1019.15 1019.66 1020.07 1020.40 1020.42 1020.35
1012.59 1012.21 1010.28 1008.04 1008.20 1008.17 1007.60 1007.24 1007.34 1007.72 1008.19 1008.99 1009.56 1010.17 1010.68 1011.37 1011.97 1012.36 1012.64 1012.86 1012.96 1013.20 1013.46 1013.66 1013.79 1013.81 1014.36 1014.77 1015.38 1015.56 1015.99 1016.41 1016.79 1017.50 1018.04 1018.56 1018.84 1019.18 1019.44 1019.98 1020.58 1020.58 1020.92 1021.07
1011.10 1009.84 1008.36 1007.84 1007.66 1007.40 1007.54 1007.80 1007.80 1008.01 1008.47 1009.08 1009.87 1010.49 1011.03 1011.74 1012.27 1012.72 1013.14 1013.41 1013.72 1013.99 1014.38 1014.66 1014.65 1014.72 1015.21 1015.93 1016.07 1016.36 1016.75 1017.28 1017.70 1018.05 1018.31 1018.66 1018.98 1019.48 1020.05 1020.46 1020.62 1021.04 1021.26 1021.35
1009.79 1008.11 1007.87 1007.32 1007.22 1007.50 1007.72 1008.04 1008.22 1008.33 1008.68 1009.28 1009.90 1010.63 1011.34 1012.00 1012.57 1012.94 1013.36 1013.71 1014.15 1014.52 1014.92 1015.22 1015.39 1015.58 1015.91 1016.39 1016.80 1016.95 1017.35 1017.63 1018.00 1018.44 1019.01 1019.35 1019.64 1020.03 1020.53 1020.93 1021.33 1021.53 1021.53 1021.54
1008.77 1007.81 1007.27 1007.26 1007.40 1007.59 1007.91 1008.23 1008.47 1008.64 1008.90 1009.37 1009.88 1010.70 1011.33 1012.12 1012.73 1013.21 1013.60 1013.97 1014.41 1014.77 1015.18 1015.52 1015.77 1016.09 1016.40 1016.69 1016.89 1017.27 1017.95 1018.55 1019.03 1019.47 1019.85 1020.17 1020.48 1020.88 1021.18 1021.22 1021.13 1021.15 1021.39 1021.49
1008.10 1007.30 1007.11 1007.14 1007.37 1007.67 1008.11 1008.43 1008.66 1008.84 1009.23 1009.56 1009.89 1010.52 1011.33 1012.14 1012.75 1013.31 1013.81 1014.37 1014.85 1015.20 1015.51 1015.96 1016.18 1016.51 1016.82 1017.11 1017.49 1018.07 1018.74 1019.21 1019.61 1020.00 1020.39 1020.69 1020.83 1020.98 1020.84 1020.94 1021.02 1021.06 1021.15 1021.15
1007.79 1007.11 1007.21 1007.38 1007.59 1007.92 1008.30 1008.61 1008.79 1009.02 1009.35 1009.74 1010.35 1010.60 1011.29 1012.07 1012.77 1013.41 1014.01 1014.55 1015.08 1015.50 1015.81 1016.21 1016.63 1016.99 1017.38 1017.73 1018.06 1018.66 1019.12 1019.59 1020.02 1020.38 1020.71 1021.02 1021.31 1021.53 1021.69 1021.50 1021.40 1021.36 1021.25 1021.10
1007.19 1007.09 1007.45 1007.47 1007.66 1008.14 1008.60 1008.91 1009.14 1009.53 1009.91 1010.19 1010.60 1011.18 1011.65 1012.28 1012.85 1013.63 1014.20 1014.76 1015.31 1015.71 1016.26 1016.68 1017.08 1017.54 1017.87 1018.15 1018.62 1019.22 1019.63 1019.90 1020.52 1021.03 1021.36 1021.68 1021.87 1021.99 1022.05 1022.08 1022.09 1021.94 1021.65 1021.38
1007.52 1007.29 1007.51 1007.68 1008.07 1008.66 1009.11 1009.48 1009.89 1010.23 1010.57 1010.98 1011.19 1011.64 1012.20 1012.73 1013.47 1013.90 1014.51 1014.99 1015.55 1016.11 1016.66 1017.14 1017.75 1018.30 1018.41 1018.64 1019.14 1019.81 1020.30 1020.78 1021.20 1021.58 1021.86 1021.99 1022.14 1022.25 1022.30 1022.33 1022.30 1022.21 1022.04 1021.75
1008.13 1007.97 1008.03 1008.23 1008.67 1009.05 1009.41 1009.81 1010.26 1010.67 1011.04 1011.53 1011.80 1012.19 1012.75 1013.26 1013.80 1014.36 1014.75 1015.21 1015.81 1016.55 1017.08 1017.61 1018.21 1018.71 1018.93 1019.27 1019.86 1020.40 1020.78 1021.10 1021.56 1021.91 1022.10 1022.27 1022.34 1022.41 1022.47 1022.45 1022.42 1022.37 1022.24 1022.01
1008.94 1008.41 1008.23 1008.41 1008.78 1009.11 1009.35 1009.71 1010.14 1010.66 1011.34 1011.86 1012.25 1012.65 1013.20 1013.83 1014.46 1014.92 1015.35 1015.74 1016.21 1016.96 1017.61 1018.15 1018.82 1019.21 1019.52 1019.87 1020.28 1020.83 1021.21 1021.51 1021.70 1022.08 1022.23 1022.30 1022.34 1022.42 1022.52 1022.57 1022.55 1022.44 1022.25 1021.94
1008.84 1008.25 1008.02 1007.90 1008.19 1008.63 1009.16 1009.60 1010.04 1010.63 1011.33 1011.99 1012.51 1013.01 1013.63 1014.19 1014.68 1015.35 1015.87 1016.36 1016.94 1017.66 1018.28 1018.86 1019.23 1019.64 1020.03 1020.39 1020.74 1021.15 1021.49 1021.83 1022.04 1022.20 1022.28 1022.30 1022.37 1022.59 1022.71 1022.67 1022.57 1022.40 1022.24 1021.98
1008.33 1007.82 1007.44 1007.45 1007.63 1008.06 1008.72 1009.39 1009.98 1010.82 1011.59 1012.21 1012.84 1013.40 1013.93 1014.46 1014.98 1015.67 1016.33 1016.97 1017.60 1018.22 1019.00 1019.14 1019.51 1019.94 1020.31 1020.65 1020.96 1021.32 1021.69 1021.99 1022.21 1022.34 1022.41 1022.37 1022.54 1022.77 1022.77 1022.70 1022.66 1022.56 1022.32 1021.97
1008.47 1007.66 1007.42 1007.54 1007.77 1008.18 1008.85 1009.53 1010.27 1011.15 1011.85 1012.42 1013.11 1013.76 1014.34 1014.88 1015.35 1016.00 1016.66 1017.38 1017.85 1018.17 1018.82 1019.17 1019.65 1020.11 1020.43 1020.73 1021.13 1021.51 1021.82 1022.08 1022.29 1022.48 1022.56 1022.70 1022.88 1022.92 1022.92 1022.87 1022.73 1022.53 1022.31 1022.04
1009.16 1008.41 1008.02 1008.15 1008.49 1008.94 1009.43 1010.04 1010.57 1011.15 1011.81 1012.45 1012.99 1013.69 1014.37 1015.04 1015.52 1016.08 1016.87 1017.69 1018.35 1018.51 1019.02 1019.40 1019.82 1020.24 1020.54 1020.89 1021.33 1021.70 1021.94 1022.19 1022.43 1022.59 1022.76 1022.99 1023.08 1023.06 1023.06 1023.00 1022.83 1022.54 1022.29 1022.10
1009.61 1009.00 1008.76 1008.86 1009.10 1009.72 1010.14 1010.56 1011.08 1011.64 1012.20 1012.76 1013.31 1013.92 1014.55 1015.30 1015.95 1016.56 1016.84 1017.10 1018.02 1018.46 1019.12 1019.62 1019.99 1020.32 1020.64 1021.09 1021.51 1021.80 1022.08 1022.31 1022.54 1022.70 1022.94 1023.13 1023.15 1023.18 1023.17 1023.10 1022.91 1022.48 1022.25 1022.14
1010.46 1009.96 1009.66 1009.62 1009.92 1010.27 1010.58 1010.83 1011.20 1011.59 1012.20 1012.85 1013.46 1014.08 1014.61 1015.18 1015.73 1016.24 1017.07 1017.68 1018.01 1018.64 1019.25 1019.71 1019.99 1020.26 1020.70 1021.21 1021.54 1021.87 1022.15 1022.38 1022.57 1022.73 1023.00 1023.06 1023.09 1023.21 1023.18 1023.07 1022.65 1022.35 1022.09 1021.87
1011.25 1010.78 1010.47 1010.40 1010.46 1010.78 1011.14 1011.35 1011.64 1012.10 1012.40 1012.78 1013.41 1014.10 1014.51 1015.36 1016.26 1016.42 1016.66 1017.39 1018.06 1018.62 1019.28 1019.60 1019.85 1020.31 1020.88 1021.26 1021.64 1021.97 1022.21 1022.40 1022.56 1022.76 1022.86 1022.75 1022.89 1022.86 1022.78 1022.61 1022.41 1022.06 1021.79 1021.60
1011.78 1011.38 1011.14 1011.06 1011.14 1011.34 1011.50 1011.77 1012.14 1012.53 1012.86 1013.28 1013.75 1014.23 1014.68 1015.02 1015.45 1016.52 1016.86 1017.45 1018.00 1018.72 1019.25 1019.49 1019.88 1020.40 1020.91 1021.28 1021.65 1021.92 1022.13 1022.32 1022.47 1022.60 1022.70 1022.69 1022.61 1022.51 1022.34 1022.22 1022.06 1021.71 1021.41 1021.16
1012.31 1012.00 1011.73 1011.56 1011.56 1011.69 1011.86 1012.03 1012.22 1012.53 1012.80 1013.32 1013.92 1014.43 1014.91 1015.25 1015.62 1016.33 1016.93 1017.38 1018.05 1018.68 1019.21 1019.53 1019.99 1020.53 1020.87 1021.27 1021.57 1021.77 1021.99 1022.18 1022.33 1022.40 1022.40 1022.42 1022.40 1022.28 1022.03 1021.85 1021.63 1021.31 1021.12 1020.83
1012.52 1012.24 1012.03 1011.90 1011.86 1011.87 1011.99 1012.15 1012.23 1012.42 1012.61 1012.95 1013.49 1014.30 1014.83 1015.25 1015.71 1016.26 1016.89 1017.52 1018.10 1018.77 1019.34 1019.78 1020.15 1020.51 1020.91 1021.23 1021.47 1021.70 1021.89 1022.06 1022.11 1022.07 1022.01 1021.96 1022.01 1022.00 1021.79 1021.49 1021.18 1020.80 1020.51 1020.29
Thickness
5509 5520 5525 5527 5520 5515 5508 5528 5506 5547 5541 5564 5565 5566 5566 5567 5561 5560 5554 5547 5542 5531 5516 5500 5489 5490 5493 5497 5501 5505 5508 5515 5519 5525 5530 5533 5538 5529 5530 5528 5526 5522 5515 5505
5496 5519 5521 5517 5525 5522 5523 5528 5531 5538 5543 5560 5564 5563 5562 5548 5545 5546 5543 5538 5535 5521 5503 5489 5478 5481 5483 5485 5489 5489 5490 5494 5505 5514 5516 5516 5519 5515 5515 5514 5510 5504 5495 5491
5495 5522 5527 5512 5533 5536 5536 5535 5546 5539 5558 5566 5563 5561 5541 5533 5535 5534 5527 5533 5522 5506 5497 5488 5481 5479 5476 5476 5475 5478 5482 5485 5490 5499 5502 5503 5505 5504 5499 5494 5490 5486 5484 5480
5489 5511 5521 5553 5560 5557 5546 5552 5550 5555 5562 5563 5560 5540 5532 5526 5526 5522 5516 5512 5503 5497 5492 5487 5481 5475 5472 5470 5466 5468 5469 5476 5480 5486 5486 5489 5492 5487 5481 5484 5477 5472 5473 5473
5516 5501 5526 5559 5562 5557 5551 5556 5559 5560 5562 5562 5556 5538 5530 5522 5520 5514 5510 5506 5502 5495 5490 5485 5480 5477 5476 5472 5465 5461 5462 5464 5471 5477 5476 5477 5474 5476 5473 5474 5467 5468 5468 5467
5505 5487 5518 5554 5560 5559 5557 5547 5562 5562 5561 5555 5547 5556 5544 5519 5515 5507 5505 5502 5499 5492 5487 5480 5475 5477 5476 5471 5468 5463 5463 5464 5467 5467 5469 5467 5467 5464 5462 5460 5459 5459 5451 5454
5503 5508 5514 5547 5555 5555 5548 5551 5565 5561 5555 5551 5545 5541 5526 5515 5508 5504 5500 5495 5491 5488 5483 5479 5476 5477 5472 5467 5463 5461 5463 5464 5461 5461 5462 5458 5454 5458 5458 5454 5449 5446 5444 5442
5503 5503 5501 5553 5550 5554 5558 5561 5563 5556 5551 5538 5534 5527 5521 5513 5506 5501 5496 5491 5486 5480 5475 5474 5472 5470 5465 5463 5460 5459 5459 5458 5459 5457 5455 5453 5454 5453 5451 5445 5439 5439 5434 5428
5510 5521 5546 5552 5556 5558 5553 5550 5555 5552 5542 5535 5528 5523 5518 5510 5504 5499 5492 5486 5483 5479 5473 5469 5469 5469 5464 5459 5459 5457 5457 5455 5454 5454 5453 5452 5450 5446 5440 5436 5433 5427 5422 5418
5527 5549 5545 5553 5554 5552 5548 5545 5544 5543 5536 5532 5528 5520 5514 5507 5502 5497 5492 5488 5483 5477 5472 5467 5466 5465 5461 5459 5456 5457 5456 5455 5453 5449 5447 5444 5442 5438 5433 5427 5420 5415 5412 5406
5525 5544 5550 5551 5552 5550 5544 5540 5539 5537 5532 5530 5528 5517 5511 5504 5499 5495 5490 5486 5481 5477 5472 5468 5466 5463 5460 5459 5458 5457 5452 5447 5445 5443 5439 5434 5431 5425 5420 5415 5413 5409 5404 5399
5527 5546 5551 5553 5549 5545 5541 5537 5536 5533 5527 5528 5526 5519 5512 5503 5499 5494 5488 5482 5476 5473 5471 5467 5465 5463 5460 5458 5456 5451 5445 5441 5436 5432 5428 5425 5421 5417 5418 5414 5410 5405 5399 5393
5532 5544 5543 5543 5541 5538 5536 5533 5532 5529 5526 5522 5519 5517 5512 5505 5499 5493 5486 5480 5475 5472 5469 5467 5464 5460 5456 5453 5449 5444 5439 5435 5432 5427 5422 5417 5412 5407 5403 5401 5399 5395 5390 5385
5535 5538 5539 5535 5542 5531 5529 5526 5524 5521 5519 5518 5515 5512 5506 5499 5496 5487 5482 5478 5473 5470 5465 5462 5459 5455 5451 5449 5445 5439 5435 5431 5422 5416 5410 5405 5401 5397 5393 5389 5384 5379 5376 5372
5521 5530 5529 5523 5521 5520 5518 5516 5513 5510 5508 5506 5506 5503 5499 5494 5486 5484 5479 5475 5469 5465 5460 5457 5452 5446 5445 5442 5437 5430 5423 5416 5411 5406 5401 5398 5394 5389 5385 5380 5375 5369 5364 5358
5515 5516 5517 5520 5514 5512 5511 5507 5505 5502 5499 5497 5497 5496 5492 5486 5480 5478 5476 5471 5465 5459 5455 5450 5445 5440 5438 5433 5427 5420 5415 5411 5404 5399 5394 5390 5386 5382 5377 5372 5367 5361 5354 5347
5503 5514 5513 5507 5508 5506 5505 5504 5504 5499 5492 5490 5488 5487 5484 5479 5474 5472 5468 5465 5460 5453 5448 5444 5437 5433 5429 5424 5418 5412 5406 5402 5399 5392 5388 5384 5381 5377 5371 5366 5359 5352 5344 5337
5492 5502 5511 5518 5510 5508 5505 5504 5502 5497 5491 5487 5483 5480 5475 5472 5469 5464 5459 5455 5450 5444 5439 5433 5429 5424 5419 5415 5410 5404 5399 5394 5390 5385 5383 5379 5374 5369 5363 5357 5350 5342 5333 5325
5496 5503 5512 5515 5513 5511 5507 5503 5498 5491 5485 5481 5476 5472 5470 5466 5462 5456 5452 5447 5441 5435 5427 5425 5422 5417 5412 5408 5403 5398 5393 5388 5383 5380 5376 5373 5366 5360 5354 5348 5341 5332 5323 5314
5491 5502 5506 5506 5507 5505 5500 5494 5489 5481 5478 5474 5470 5465 5461 5457 5453 5448 5444 5439 5435 5431 5424 5420 5415 5410 5406 5403 5398 5391 5386 5382 5377 5373 5369 5363 5358 5352 5346 5341 5333 5325 5315 5304
5484 5492 5496 5496 5495 5491 5489 5483 5480 5477 5474 5469 5466 5460 5455 5450 5447 5442 5436 5431 5423 5422 5416 5413 5408 5404 5400 5396 5390 5385 5380 5375 5370 5366 5362 5356 5351 5346 5339 5331 5324 5316 5307 5296
5475 5483 5487 5487 5486 5480 5476 5475 5473 5468 5464 5461 5457 5453 5448 5441 5437 5432 5431 5430 5421 5418 5411 5405 5401 5398 5394 5389 5383 5377 5372 5368 5363 5359 5354 5350 5345 5338 5329 5322 5314 5308 5299 5288
5465 5471 5475 5477 5475 5472 5471 5469 5468 5466 5462 5457 5452 5447 5444 5440 5436 5432 5424 5419 5416 5410 5404 5399 5397 5394 5389 5381 5376 5371 5366 5361 5357 5353 5346 5341 5335 5328 5321 5314 5309 5301 5291 5283
5454 5459 5464 5465 5464 5462 5460 5460 5458 5456 5454 5452 5447 5443 5439 5432 5424 5423 5422 5416 5410 5405 5397 5394 5392 5387 5380 5374 5368 5363 5359 5355 5349 5344 5340 5339 5329 5323 5316 5310 5302 5295 5286 5278
5444 5447 5447 5450 5452 5453 5450 5449 5448 5446 5445 5442 5439 5436 5433 5430 5428 5417 5415 5410 5405 5398 5392 5390 5386 5380 5372 5367 5362 5357 5352 5346 5342 5338 5334 5329 5324 5318 5312 5305 5297 5289 5281 5275
5434 5439 5441 5444 5445 5444 5443 5444 5443 5442 5440 5436 5432 5429 5425 5422 5419 5413 5408 5404 5398 5392 5385 5381 5376 5370 5366 5361 5356 5352 5347 5342 5339 5334 5330 5324 5318 5312 5306 5300 5291 5283 5274 5270
5425 5433 5432 5434 5434 5435 5435 5435 5435 5435 5436 5434 5430 5423 5419 5415 5411 5407 5402 5396 5390 5384 5377 5372 5368 5364 5359 5354 5350 5346 5341 5337 5334 5330 5325 5320 5313 5305 5300 5293 5285 5278 5270 5268